Lancaster, PA

5:32 PM EDT on April 25, 2017 (GMT -0400)
Lancaster

Weather History for KLNS - January, 2012

Change the Weather History Date:

Friday, January 20, 2012

  Actual Average Record
Temperature  
Mean Temperature 26 °F -  
Max Temperature 32 °F 36 °F 61 °F (2006)
Min Temperature 21 °F 21 °F 0 °F (1984)
Degree Days  
Heating Degree Days 38    
Moisture  
Dew Point 11 °F    
Average Humidity 52    
Maximum Humidity 75    
Minimum Humidity 36    
Precipitation  
Precipitation 0.00 in - - ()
Sea Level Pressure  
Sea Level Pressure 30.19 in    
Wind  
Wind Speed 6 mph (NW)    
Max Wind Speed 18 mph    
Max Gust Speed -    
Visibility 10 miles    
Events      
Averages and records for this station are not official NWS values.
T = Trace of Precipitation, MM = Missing Value Source: NWS Daily Summary

Daily Weather History Graph

Daily Weather History Graph

Search for Another Location

Airport or City:

Trip Planner

Search our weather history database for the weather conditions in past years. The results will help you decide how hot, cold, wet, or windy it might be!

Date:

Astronomy

Jan. 20, 2012 Rise Set
Actual Time 7:23 AM EST 5:09 PM EST
Civil Twilight 6:53 AM EST 5:38 PM EST
Nautical Twilight 6:20 AM EST 6:11 PM EST
Astronomical Twilight 5:48 AM EST 6:44 PM EST
Moon 4:58 AM EST (1/20) 2:38 PM EST (1/20)
Length of Visible Light 10h 44m
Length of Day
9h 45m
Waning Crescent, 8% of the Moon is Illuminated
Jan 20
Waning Crescent
Jan 23
New
Jan 30
First Quarter
Feb 7
Full
Feb 14
Last Quarter

Hourly Weather History & Observations

Time (EST) Temp. Windchill Dew Point Humidity Pressure Visibility Wind Dir Wind Speed Gust Speed Precip Events Conditions
12:53 AM 30.0 °F - 21.9 °F 72% 29.96 in 10.0 mi Calm Calm - N/A   Clear
1:53 AM 28.9 °F 25.2 °F 21.9 °F 75% 29.98 in 10.0 mi NW 3.5 mph - N/A   Scattered Clouds
2:34 AM 32.0 °F 23.6 °F 23.0 °F 69% 30.00 in 10.0 mi NW 10.4 mph - N/A   Mostly Cloudy
2:53 AM 32.0 °F 24.2 °F 23.0 °F 69% 30.01 in 10.0 mi NW 9.2 mph - N/A   Overcast
3:00 AM 32.0 °F 23.0 °F 23.0 °F 69% 30.00 in 10.0 mi NW 11.5 mph - N/A   Overcast
3:53 AM 30.9 °F 23.5 °F 19.9 °F 64% 30.04 in 10.0 mi NW 8.1 mph - N/A   Overcast
4:53 AM 28.9 °F 18.2 °F 15.1 °F 56% 30.08 in 10.0 mi NW 13.8 mph - N/A   Clear
5:53 AM 25.0 °F 11.3 °F 7.0 °F 46% 30.13 in 10.0 mi NNW 18.4 mph - N/A   Clear
6:53 AM 21.9 °F 10.4 °F 8.1 °F 55% 30.17 in 10.0 mi NNW 11.5 mph - N/A   Clear
7:53 AM 21.0 °F 11.4 °F 7.0 °F 55% 30.22 in 10.0 mi NW 8.1 mph - N/A   Clear
8:53 AM 23.0 °F 11.7 °F 7.0 °F 50% 30.26 in 10.0 mi NNW 11.5 mph - N/A   Clear
9:53 AM 24.1 °F 13.7 °F 7.0 °F 48% 30.28 in 10.0 mi NNW 10.4 mph - N/A   Clear
10:53 AM 24.1 °F 19.7 °F 7.0 °F 48% 30.29 in 10.0 mi NNW 3.5 mph - N/A   Clear
11:53 AM 26.1 °F 15.6 °F 7.0 °F 44% 30.29 in 10.0 mi NW 11.5 mph - N/A   Clear
12:53 PM 27.0 °F 21.6 °F 6.1 °F 41% 30.28 in 10.0 mi NW 4.6 mph - N/A   Clear
1:53 PM 27.0 °F 20.5 °F 6.1 °F 41% 30.26 in 10.0 mi West 5.8 mph - N/A   Clear
2:53 PM 28.0 °F 22.8 °F 6.1 °F 39% 30.26 in 10.0 mi NNW 4.6 mph - N/A   Clear
3:53 PM 28.0 °F 22.8 °F 3.9 °F 36% 30.26 in 10.0 mi WNW 4.6 mph - N/A   Clear
4:53 PM 27.0 °F 21.6 °F 6.1 °F 41% 30.24 in 10.0 mi NNW 4.6 mph - N/A   Clear
5:53 PM 27.0 °F - 7.0 °F 43% 30.27 in 10.0 mi Calm Calm - N/A   Partly Cloudy
6:53 PM 27.0 °F 23.0 °F 7.0 °F 43% 30.30 in 10.0 mi WNW 3.5 mph - N/A   Mostly Cloudy
7:53 PM 27.0 °F - 8.1 °F 45% 30.30 in 10.0 mi Calm Calm - N/A   Overcast
8:53 PM 27.0 °F - 7.0 °F 43% 30.28 in 10.0 mi Calm Calm - N/A   Overcast
9:53 PM 27.0 °F 18.7 °F 10.0 °F 49% 30.21 in 10.0 mi East 8.1 mph - N/A   Overcast
10:53 PM 27.0 °F 21.6 °F 10.0 °F 49% 30.23 in 10.0 mi South 4.6 mph - N/A   Overcast
11:53 PM 28.0 °F 21.7 °F 10.9 °F 49% 30.21 in 10.0 mi SE 5.8 mph - N/A   Overcast